Danville, IN

3:38 PM EDT on September 26, 2017 (GMT -0400)
Vermilion County

Weather History for KDNV - September, 2013

Change the Weather History Date:

Saturday, September 21, 2013

  Actual Average (KLAF) Record (KLAF)
Temperature  
Mean Temperature 59 °F -  
Max Temperature 72 °F 73 °F 94 °F (2010)
Min Temperature 46 °F 52 °F 39 °F (1971)
Degree Days  
Heating Degree Days 6    
Growing Degree Days 9 (Base 50)    
Moisture  
Dew Point 46 °F    
Average Humidity 69    
Maximum Humidity 97    
Minimum Humidity 36    
Precipitation  
Precipitation 0.01 in - - ()
Sea Level Pressure  
Sea Level Pressure 29.85 in    
Wind  
Wind Speed 7 mph (NW)    
Max Wind Speed 14 mph    
Max Gust Speed 20 mph    
Visibility 9 miles    
Events Rain    
Averages and records for this station are not official NWS values.
T = Trace of Precipitation, MM = Missing Value Source: NWS Daily Summary

Daily Weather History Graph

Daily Weather History Graph

Search for Another Location

Airport or City:

Trip Planner

Search our weather history database for the weather conditions in past years. The results will help you decide how hot, cold, wet, or windy it might be!

Date:

Astronomy

Sep. 21, 2013 Rise Set
Actual Time 6:37 AM CDT 6:48 PM CDT
Civil Twilight 6:10 AM CDT 7:15 PM CDT
Nautical Twilight 5:38 AM CDT 7:47 PM CDT
Astronomical Twilight 5:05 AM CDT 8:19 PM CDT
Moon 7:59 PM CDT (9/21) 8:55 AM CDT (9/21)
Length of Visible Light 13h 05m
Length of Day
12h 11m
Waning Gibbous, 94% of the Moon is Illuminated
Sep 21
Waning Gibbous
Sep 26
Last Quarter
Oct 4
New
Oct 11
First Quarter
Oct 18
Full

Hourly Weather History & Observations

Time (CDT) Temp. Dew Point Humidity Pressure Visibility Wind Dir Wind Speed Gust Speed Precip Events Conditions
12:15 AM 55.9 °F 51.4 °F 85% 29.84 in 10.0 mi NW 6.9 mph - N/A Rain Rain
12:35 AM 55.6 °F 51.4 °F 86% 29.84 in 10.0 mi WNW 6.9 mph - N/A Rain Rain
12:55 AM 55.0 °F 51.1 °F 86% 29.84 in 10.0 mi WNW 5.8 mph - N/A   Clear
1:15 AM 54.5 °F 50.7 °F 87% 29.84 in 10.0 mi NW 5.8 mph - N/A   Clear
1:35 AM 53.8 °F 50.2 °F 88% 29.83 in 7.0 mi WNW 4.6 mph - N/A   Clear
1:55 AM 52.9 °F 49.8 °F 89% 29.83 in 10.0 mi WNW 4.6 mph - N/A   Clear
2:15 AM 52.3 °F 49.6 °F 91% 29.83 in 7.0 mi WNW 4.6 mph - N/A   Clear
2:35 AM 51.8 °F 49.1 °F 90% 29.82 in 10.0 mi WNW 3.5 mph - N/A   Clear
2:55 AM 51.1 °F 48.9 °F 92% 29.82 in 7.0 mi WNW 3.5 mph - N/A   Clear
3:15 AM 51.1 °F 49.3 °F 94% 29.81 in 7.0 mi WNW 5.8 mph - N/A   Clear
3:35 AM 51.1 °F 49.3 °F 94% 29.80 in 10.0 mi WNW 5.8 mph - N/A   Clear
3:55 AM 50.9 °F 49.1 °F 94% 29.80 in 10.0 mi WNW 4.6 mph - N/A   Clear
4:15 AM 50.7 °F 49.1 °F 94% 29.80 in 10.0 mi WNW 5.8 mph - N/A   Clear
4:35 AM 50.5 °F 49.1 °F 95% 29.80 in 10.0 mi NW 9.2 mph - N/A   Clear
4:55 AM 50.4 °F 49.1 °F 95% 29.80 in 10.0 mi NW 6.9 mph - N/A   Clear
5:15 AM 50.2 °F 48.7 °F 95% 29.80 in 10.0 mi NW 6.9 mph - N/A   Clear
5:35 AM 50.0 °F 48.6 °F 95% 29.81 in 10.0 mi NW 6.9 mph - N/A   Clear
5:55 AM 50.0 °F 48.6 °F 95% 29.81 in 10.0 mi NW 6.9 mph - N/A   Clear
6:15 AM 49.6 °F 48.4 °F 95% 29.82 in 10.0 mi NW 6.9 mph - N/A   Clear
6:35 AM 49.5 °F 48.2 °F 95% 29.83 in 10.0 mi NW 5.8 mph - N/A   Clear
6:55 AM 49.1 °F 48.0 °F 96% 29.83 in 10.0 mi WNW 5.8 mph - N/A   Clear
7:15 AM 50.0 °F 49.1 °F 97% 29.84 in 10.0 mi NW 5.8 mph - N/A   Clear
7:35 AM 50.9 °F 49.8 °F 96% 29.85 in 10.0 mi NW 6.9 mph - N/A   Clear
7:55 AM 52.5 °F 50.9 °F 94% 29.85 in 10.0 mi NW 6.9 mph - N/A   Clear
8:15 AM 53.6 °F 51.3 °F 92% 29.85 in 10.0 mi NW 8.1 mph - N/A   Clear
8:35 AM 55.6 °F 52.3 °F 89% 29.85 in 10.0 mi NW 8.1 mph - N/A   Clear
8:55 AM 57.0 °F 52.7 °F 85% 29.86 in 10.0 mi NNW 9.2 mph - N/A   Clear
9:15 AM 59.2 °F 52.3 °F 78% 29.86 in 10.0 mi NW 10.4 mph - N/A   Clear
9:35 AM 60.8 °F 52.0 °F 73% 29.87 in 10.0 mi NW 8.1 mph - N/A   Clear
9:55 AM 62.4 °F 50.9 °F 66% 29.87 in 10.0 mi NNW 9.2 mph - N/A   Clear
10:15 AM 63.9 °F 49.8 °F 60% 29.87 in 10.0 mi NW 6.9 mph - N/A   Clear
10:35 AM 65.5 °F 49.3 °F 56% 29.87 in 10.0 mi NNW 10.4 mph 17.3 mph N/A   Clear
10:55 AM 66.9 °F 48.2 °F 51% 29.87 in 10.0 mi NW 9.2 mph - N/A   Clear
11:15 AM 68.0 °F 47.8 °F 48% 29.87 in 7.0 mi NNW 11.5 mph 17.3 mph N/A   Clear
11:35 AM 67.6 °F 46.8 °F 47% 29.87 in 7.0 mi NNW 10.4 mph 18.4 mph N/A   Clear
11:55 AM 69.1 °F 45.7 °F 43% 29.87 in 7.0 mi NNW 12.7 mph 18.4 mph 0.01 in   Scattered Clouds
12:15 PM 70.7 °F 46.0 °F 41% 29.87 in 7.0 mi NW 13.8 mph 19.6 mph N/A   Scattered Clouds
12:35 PM 69.8 °F 45.7 °F 42% 29.87 in 7.0 mi NW 12.7 mph 18.4 mph N/A   Scattered Clouds
12:55 PM 70.3 °F 46.2 °F 42% 29.86 in 7.0 mi NW 10.4 mph 16.1 mph N/A   Scattered Clouds
1:15 PM 70.2 °F 45.9 °F 42% 29.85 in 7.0 mi NNW 12.7 mph 16.1 mph N/A   Scattered Clouds
1:35 PM 69.6 °F 43.7 °F 39% 29.85 in 10.0 mi NW 10.4 mph 18.4 mph N/A   Clear
1:55 PM 72.1 °F 45.3 °F 38% 29.85 in 7.0 mi NW 12.7 mph 16.1 mph N/A   Mostly Cloudy
2:15 PM 71.8 °F 43.2 °F 36% 29.85 in 7.0 mi NNW 13.8 mph 19.6 mph N/A   Scattered Clouds
2:35 PM 69.1 °F 43.9 °F 40% 29.85 in 7.0 mi NW 13.8 mph 19.6 mph N/A   Scattered Clouds
2:55 PM 70.3 °F 43.7 °F 38% 29.84 in 7.0 mi NW 12.7 mph - N/A   Clear
3:15 PM 70.3 °F 43.7 °F 38% 29.84 in 7.0 mi NNW 8.1 mph - N/A   Clear
3:35 PM 69.3 °F 43.5 °F 39% 29.84 in 10.0 mi NNW 13.8 mph 17.3 mph N/A   Clear
3:55 PM 71.1 °F 44.2 °F 38% 29.84 in 7.0 mi NW 10.4 mph 16.1 mph N/A   Clear
4:15 PM 70.0 °F 42.6 °F 37% 29.84 in 7.0 mi NW 10.4 mph 18.4 mph N/A   Clear
4:35 PM 70.3 °F 43.0 °F 37% 29.84 in 7.0 mi NW 8.1 mph 16.1 mph N/A   Scattered Clouds
4:55 PM 70.7 °F 43.2 °F 37% 29.85 in 7.0 mi NW 8.1 mph 17.3 mph N/A   Scattered Clouds
5:15 PM 70.0 °F 42.8 °F 37% 29.85 in 10.0 mi North 10.4 mph 17.3 mph N/A   Clear
5:35 PM 69.4 °F 42.8 °F 38% 29.85 in 7.0 mi NNW 8.1 mph - N/A   Clear
5:55 PM 68.2 °F 43.2 °F 40% 29.86 in 7.0 mi NNW 10.4 mph - N/A   Clear
6:15 PM 66.6 °F 43.3 °F 43% 29.85 in 10.0 mi NW 8.1 mph - N/A   Clear
6:35 PM 63.7 °F 43.3 °F 48% 29.86 in 10.0 mi NNW 5.8 mph - N/A   Clear
6:55 PM 59.9 °F 43.7 °F 55% 29.86 in 10.0 mi NNW 4.6 mph - N/A   Clear
7:15 PM 56.8 °F 43.3 °F 61% 29.86 in 10.0 mi North 4.6 mph - N/A   Clear
7:35 PM 54.5 °F 43.7 °F 67% 29.87 in 10.0 mi North 5.8 mph - N/A   Clear
7:55 PM 52.9 °F 43.0 °F 69% 29.87 in 10.0 mi North 3.5 mph - N/A   Clear
8:15 PM 51.8 °F 43.9 °F 74% 29.88 in 10.0 mi North 3.5 mph - N/A   Clear
8:35 PM 51.3 °F 44.1 °F 76% 29.87 in 7.0 mi North 4.6 mph - N/A   Clear
8:55 PM 49.8 °F 43.7 °F 79% 29.88 in 10.0 mi NNW 3.5 mph - N/A   Clear
9:15 PM 48.6 °F 42.8 °F 80% 29.88 in 10.0 mi Calm Calm - N/A   Clear
9:35 PM 46.8 °F 40.6 °F 79% 29.89 in 10.0 mi Calm Calm - N/A   Clear
9:55 PM 47.8 °F 43.3 °F 84% 29.90 in 10.0 mi North 4.6 mph - N/A   Clear
10:15 PM 48.2 °F 43.7 °F 84% 29.90 in 10.0 mi NNE 4.6 mph - N/A   Clear
10:35 PM 48.6 °F 41.2 °F 76% 29.91 in 10.0 mi NE 4.6 mph - N/A   Clear
10:55 PM 49.3 °F 38.7 °F 67% 29.91 in 10.0 mi NNE 4.6 mph - N/A   Clear
11:15 PM 49.1 °F 38.3 °F 66% 29.91 in 10.0 mi NE 4.6 mph - N/A   Clear
11:35 PM 48.2 °F 36.7 °F 64% 29.92 in 10.0 mi NE 4.6 mph - N/A   Clear
11:55 PM 48.2 °F 39.0 °F 71% 29.92 in 10.0 mi NE 3.5 mph - N/A   Clear